TimeCST,TemperatureF,Dew PointF,Humidity,Sea Level PressureIn,VisibilityMPH,Wind Direction,Wind SpeedMPH,Gust SpeedMPH,PrecipitationIn,Events,Conditions,WindDirDegrees,DateUTC
12:00 AM,74,72,94,30.01,12,Calm,Calm,,,Rain,Light Rain Showers,,2012-11-11 06:00:00
3:00 AM,74,72,94,29.98,4,North,6.9,,,Rain,Light Rain Showers,0,2012-11-11 09:00:00
5:00 AM,73.4,73.4,100,29.98,6.2,Calm,Calm,-,N/A,,Mostly Cloudy,0,2012-11-11 11:00:00
6:00 AM,73,72,95,30.01,5,Calm,Calm,,,Rain,Light Rain Showers,,2012-11-11 12:00:00
6:00 AM,73.4,71.6,94,30.01,5.0,Calm,Calm,-,N/A,Rain,Light Rain Showers,0,2012-11-11 12:00:00
7:00 AM,73.4,71.6,94,30.01,6.2,WNW,4.6,-,N/A,,Mostly Cloudy,300,2012-11-11 13:00:00
8:00 AM,73.4,73.4,100,30.04,6.2,West,3.5,-,N/A,Rain,Light Rain Showers,260,2012-11-11 14:00:00
8:35 AM,73.4,73.4,100,30.04,6.2,Calm,Calm,-,N/A,,Mostly Cloudy,0,2012-11-11 14:35:00
9:00 AM,76,74,94,30.05,9,Calm,Calm,,,Rain,Light Rain Showers,,2012-11-11 15:00:00
9:00 AM,77.0,75.2,94,30.04,6.2,Calm,Calm,-,N/A,Rain,Light Rain Showers,0,2012-11-11 15:00:00
10:00 AM,75.2,73.4,94,30.04,5.6,Calm,Calm,-,N/A,Rain,Light Rain,0,2012-11-11 16:00:00
10:30 AM,75.2,73.4,94,30.03,6.2,SW,3.5,-,N/A,Rain,Light Rain,230,2012-11-11 16:30:00
11:00 AM,78.8,75.2,89,30.02,6.2,WNW,3.5,-,N/A,,Mostly Cloudy,290,2012-11-11 17:00:00
12:00 PM,82,75,73,29.99,12,Calm,Calm,,,,Partly Cloudy,,2012-11-11 18:00:00
12:00 PM,82.4,75.2,79,29.99,6.2,Calm,Calm,-,N/A,,Mostly Cloudy,0,2012-11-11 18:00:00
1:00 PM,78.8,75.2,89,29.96,5.6,East,9.2,-,N/A,Rain,Light Rain Showers,80,2012-11-11 19:00:00
2:00 PM,80.6,75.2,84,29.95,6.2,Calm,Calm,-,N/A,,Mostly Cloudy,0,2012-11-11 20:00:00
3:00 PM,82,74,70,29.94,4,East,4.6,,,,Mostly Cloudy,90,2012-11-11 21:00:00
3:00 PM,82.4,73.4,74,29.94,4.3,East,4.6,-,N/A,,Mostly Cloudy,90,2012-11-11 21:00:00
3:30 PM,82.4,73.4,74,29.93,6.2,ENE,4.6,-,N/A,,Mostly Cloudy,70,2012-11-11 21:30:00
4:00 PM,82.4,73.4,74,29.94,6.2,ENE,8.1,-,N/A,Rain,Light Rain Showers,60,2012-11-11 22:00:00
5:00 PM,80.6,73.4,79,29.95,6.2,East,6.9,-,N/A,,Scattered Clouds,80,2012-11-11 23:00:00
6:00 PM,80,73,75,29.96,,ENE,10.4,,,Rain,Light Rain Showers,60,2012-11-12 00:00:00
6:00 PM,80.6,73.4,79,29.96,2.5,ENE,10.4,-,N/A,Rain,Rain Showers,60,2012-11-12 00:00:00
9:00 PM,80,76,82,30.02,12,ENE,6.9,,,,Partly Cloudy,70,2012-11-12 03:00:00
10:00 PM,80.6,75.2,84,30.01,6.2,East,5.8,-,N/A,,Mostly Cloudy,80,2012-11-12 04:00:00
11:00 PM,80.6,75.2,84,30.01,6.2,East,8.1,-,N/A,,Mostly Cloudy,80,2012-11-12 05:00:00